Wind_Speed
34 34 34 33 33 33 35 35 35 36 36 36 36 37 38 39 39 39 38 36 35 34 32 30 28 26 25 23 22 21 21 21 22 22 23 23 24 25
37 37 37 37 36 36 35 36 37 37 38 39 38 39 41 41 42 41 40 38 37 36 34 32 30 27 25 24 22 20 20 20 20 21 21 22 23 23
40 40 40 41 40 40 39 38 38 39 38 39 40 40 41 43 44 44 42 41 39 37 36 33 30 28 26 24 22 21 20 19 19 19 19 20 21 22
44 44 44 44 44 44 44 42 41 41 41 40 40 41 41 44 46 46 45 43 42 40 38 35 32 29 27 24 23 21 19 18 17 17 18 18 19 19
46 47 47 48 48 47 47 47 45 44 44 43 41 43 43 45 46 48 47 46 45 42 40 37 33 31 28 25 23 21 19 18 17 17 17 17 18 18
48 48 49 50 51 51 50 50 50 48 47 48 46 45 45 46 47 49 49 48 47 45 43 39 35 32 30 27 25 22 20 18 17 17 16 17 17 18
51 51 51 52 53 55 55 54 53 52 50 49 50 48 48 48 48 49 50 50 50 48 45 42 38 35 32 29 26 24 21 19 17 17 17 17 17 17
50 52 53 53 54 56 58 58 57 56 55 53 53 51 50 50 49 50 51 52 51 50 48 45 41 38 35 31 28 25 22 20 18 17 17 17 17 17
46 48 49 51 52 56 59 61 61 60 58 56 55 54 53 52 51 51 52 53 53 53 51 48 45 41 38 34 30 27 24 21 19 18 18 17 17 17
42 44 45 47 49 52 57 61 63 63 62 60 58 57 56 54 54 53 53 55 56 56 54 51 48 45 41 37 33 30 26 23 21 20 19 18 17 17
38 40 42 44 46 50 54 58 62 64 65 64 61 60 59 57 56 55 55 55 57 56 55 53 50 48 44 41 37 33 29 26 23 21 20 19 18 17
33 35 37 40 43 47 51 55 59 63 66 66 65 63 62 60 59 57 55 55 56 57 55 54 53 51 47 44 40 36 32 29 26 23 21 20 19 18
28 29 32 35 39 44 48 52 56 61 65 67 67 65 63 61 60 58 56 54 54 55 54 54 55 53 50 46 43 39 35 31 28 25 23 22 20 19
21 22 25 29 34 39 44 48 51 56 61 64 66 66 64 62 60 59 58 54 54 55 56 55 56 55 53 49 46 42 38 34 30 28 25 24 22 20
14 16 20 25 30 34 40 44 47 51 55 59 62 64 64 62 60 59 60 56 54 54 56 56 55 56 55 51 48 44 40 36 33 30 27 25 23 22
7 10 14 19 25 30 36 39 41 46 51 55 58 61 62 62 61 58 57 57 55 53 54 55 55 55 55 53 49 46 42 38 34 31 29 26 25 23
3 6 10 16 22 27 31 35 38 41 45 49 53 56 59 60 60 59 58 57 54 52 53 54 54 54 54 53 50 47 43 39 36 33 30 28 26 24
3 5 8 13 19 23 27 31 35 38 41 45 49 52 56 59 59 58 58 56 54 51 52 53 54 52 51 51 49 46 43 40 37 34 31 29 28 26
2 4 8 11 15 19 23 27 32 35 38 42 46 49 52 55 56 56 57 56 53 52 52 52 52 50 49 48 47 46 42 40 38 35 33 32 30 28
1 4 6 9 13 16 20 24 29 34 36 39 43 46 49 52 55 55 55 55 53 50 50 49 48 48 47 47 47 46 44 41 39 37 35 33 31 29
1 3 5 8 12 14 17 21 26 30 34 37 40 44 47 49 51 53 53 54 54 52 50 48 47 47 48 48 47 46 44 42 40 38 35 33 31 30
1 3 5 8 11 13 16 20 24 27 30 34 38 41 45 47 49 50 52 52 53 52 50 48 47 46 46 46 45 44 43 42 41 38 36 34 33 32
3 4 6 8 10 12 15 18 21 24 28 31 35 38 42 45 48 49 51 52 52 52 50 48 46 45 45 44 43 43 43 42 40 38 36 35 34 33
Wind_Direction
256 253 250 248 246 244 238 233 229 227 226 223 219 217 215 215 214 213 212 210 209 208 206 205 205 206 208 210 212 215 218 223 225 228 230 234 236 238
256 254 251 248 246 244 240 235 231 228 225 222 221 218 214 214 214 212 211 210 208 207 205 204 205 205 207 210 212 215 218 223 226 228 232 235 236 239
257 255 252 249 245 243 241 237 232 228 225 222 219 217 214 213 213 212 210 209 207 205 204 204 204 204 207 210 211 213 217 222 225 228 232 236 239 242
259 255 252 249 246 243 240 238 234 229 225 221 218 216 214 213 213 211 210 209 207 206 205 204 204 206 208 209 210 213 217 220 224 227 231 236 240 243
262 258 253 249 245 242 238 237 235 231 226 222 218 214 214 212 212 212 210 209 208 206 205 205 206 207 208 209 211 214 216 219 223 226 232 237 241 245
263 259 254 249 244 240 237 235 234 231 227 223 218 215 213 212 211 212 210 209 208 207 206 206 207 208 208 210 211 213 216 220 225 229 234 239 243 246
265 260 254 249 244 239 236 233 232 231 228 224 220 217 214 211 210 211 210 210 209 208 208 208 208 208 209 210 212 214 216 221 227 233 237 240 244 247
266 260 255 249 244 239 234 232 230 229 228 225 221 218 216 214 211 210 209 209 209 208 209 209 209 210 210 212 213 215 219 224 229 234 238 242 246 250
267 261 255 249 243 238 233 230 227 226 226 224 221 218 216 214 213 210 209 209 209 209 209 209 209 211 212 214 216 218 222 227 232 237 240 244 249 253
267 260 253 247 241 236 231 227 224 224 223 222 221 218 217 215 214 212 210 209 209 210 209 210 210 212 213 215 218 220 224 229 234 238 241 245 249 255
268 259 251 244 238 233 228 224 221 220 220 219 219 218 216 216 214 212 211 211 210 211 211 211 212 213 214 216 219 222 225 230 234 237 240 244 250 255
267 257 248 240 233 229 225 221 219 218 217 217 217 217 216 216 215 213 213 211 210 211 211 212 213 214 216 217 220 223 226 229 233 237 240 244 248 253
267 255 245 236 229 225 221 218 216 215 215 215 215 216 215 215 213 212 213 212 211 211 211 213 214 215 217 218 220 223 226 229 233 236 240 243 247 251
267 251 238 230 223 219 216 213 213 213 213 214 214 214 213 213 213 212 211 213 212 211 210 212 214 215 216 218 220 222 225 228 232 235 239 242 246 249
265 244 232 223 216 212 209 208 210 211 211 211 212 212 212 211 211 211 212 213 211 211 211 212 214 216 216 218 219 221 224 227 230 234 238 242 244 245
261 230 217 211 206 203 204 205 207 208 209 209 209 210 210 210 210 210 210 210 211 212 212 212 214 216 216 218 220 221 223 226 229 234 238 241 242 242
240 209 202 200 197 198 201 202 204 205 205 206 207 208 208 208 209 209 209 210 211 210 210 212 213 214 216 217 219 221 223 226 229 233 236 238 240 241
187 182 186 191 195 197 198 200 202 203 204 204 204 205 206 206 207 208 209 210 211 210 209 211 211 213 214 217 219 221 223 225 228 231 234 237 238 239
164 179 184 186 191 195 197 199 201 201 202 202 202 203 204 205 206 208 209 209 208 209 210 210 210 212 213 215 216 219 221 224 227 229 232 234 237 238
159 176 183 188 190 194 197 199 199 199 199 200 201 201 201 202 203 205 206 206 206 207 208 208 209 211 212 214 215 217 219 222 225 228 230 233 236 239
148 178 183 187 192 195 195 195 197 197 198 199 200 200 199 200 201 203 204 206 206 208 208 208 209 210 211 212 214 216 218 221 223 227 229 232 235 237
224 182 182 183 188 192 193 195 196 198 199 199 199 200 199 198 199 200 201 202 204 206 207 207 208 209 210 211 213 215 218 221 224 227 230 232 234 235
239 215 200 195 193 194 195 198 201 202 200 199 198 199 199 198 199 199 200 202 203 205 207 207 208 210 209 208 211 215 217 220 223 226 229 232 234 237
Height
5724 5726 5729 5731 5733 5736 5739 5743 5748 5752 5758 5763 5768 5773 5778 5783 5789 5795 5800 5806 5811 5816 5821 5825 5829 5833 5837 5840 5843 5845 5848 5850 5852 5855 5857 5859 5860 5862
5712 5715 5717 5720 5723 5726 5729 5733 5737 5742 5747 5753 5759 5763 5769 5775 5781 5787 5793 5799 5805 5810 5815 5820 5825 5828 5832 5836 5839 5841 5844 5846 5848 5850 5852 5854 5856 5857
5699 5702 5704 5708 5711 5715 5718 5722 5726 5732 5737 5742 5749 5754 5760 5766 5773 5779 5785 5792 5798 5804 5809 5815 5820 5824 5828 5831 5834 5837 5839 5842 5844 5845 5847 5849 5851 5852
5684 5687 5690 5693 5698 5702 5706 5711 5715 5720 5727 5732 5738 5745 5751 5757 5764 5771 5777 5784 5791 5797 5803 5809 5814 5819 5823 5826 5830 5833 5835 5837 5839 5841 5843 5845 5846 5847
5666 5669 5673 5677 5682 5687 5693 5698 5703 5709 5715 5721 5727 5734 5741 5747 5755 5762 5769 5776 5783 5790 5797 5803 5808 5813 5818 5822 5826 5829 5831 5833 5835 5837 5838 5840 5841 5842
5648 5651 5655 5659 5665 5670 5677 5683 5690 5696 5703 5710 5716 5723 5730 5737 5744 5752 5760 5768 5776 5783 5790 5796 5802 5808 5812 5817 5821 5824 5826 5829 5831 5832 5834 5835 5836 5837
5628 5630 5634 5639 5645 5652 5660 5667 5675 5682 5690 5697 5705 5711 5719 5726 5734 5742 5751 5759 5767 5775 5782 5790 5796 5801 5807 5812 5816 5819 5822 5824 5826 5828 5829 5831 5832 5832
5607 5609 5612 5618 5625 5632 5640 5649 5658 5667 5676 5684 5692 5700 5708 5716 5724 5732 5741 5750 5759 5767 5775 5782 5789 5795 5801 5806 5810 5814 5817 5819 5821 5823 5825 5826 5827 5827
5587 5588 5591 5597 5603 5611 5620 5629 5640 5650 5660 5670 5679 5688 5696 5706 5714 5722 5731 5740 5749 5757 5765 5773 5781 5788 5794 5799 5804 5808 5811 5814 5816 5818 5820 5821 5822 5822
5568 5569 5572 5577 5583 5591 5600 5610 5621 5633 5645 5656 5666 5675 5683 5693 5702 5712 5720 5729 5737 5746 5756 5765 5773 5780 5786 5792 5798 5802 5805 5808 5811 5813 5814 5815 5816 5817
5552 5552 5555 5559 5565 5573 5582 5593 5604 5615 5626 5639 5650 5660 5671 5681 5690 5700 5709 5719 5728 5738 5748 5757 5765 5772 5778 5785 5790 5795 5799 5802 5805 5807 5809 5810 5811 5812
5536 5537 5539 5543 5549 5556 5565 5576 5587 5598 5610 5623 5635 5647 5658 5668 5678 5689 5700 5710 5719 5729 5739 5748 5756 5763 5771 5777 5783 5788 5792 5796 5799 5801 5803 5805 5806 5806
5524 5524 5526 5530 5535 5543 5552 5562 5573 5583 5594 5607 5620 5633 5645 5656 5667 5678 5689 5700 5710 5720 5730 5738 5746 5754 5762 5769 5775 5780 5785 5790 5793 5795 5798 5799 5800 5801
5514 5514 5516 5520 5525 5532 5541 5551 5560 5571 5582 5594 5607 5620 5633 5646 5657 5668 5678 5689 5699 5708 5717 5726 5735 5743 5752 5759 5766 5772 5777 5782 5786 5789 5792 5793 5794 5795
5508 5508 5510 5513 5518 5525 5533 5542 5551 5561 5572 5583 5596 5609 5621 5634 5645 5656 5667 5677 5687 5697 5707 5716 5725 5733 5742 5749 5757 5763 5769 5775 5779 5782 5785 5787 5788 5790
5505 5505 5507 5510 5515 5521 5528 5536 5545 5554 5563 5574 5585 5597 5610 5622 5635 5646 5657 5667 5677 5687 5697 5706 5716 5724 5733 5741 5748 5755 5761 5767 5771 5775 5778 5780 5782 5784
5505 5506 5507 5510 5514 5519 5525 5533 5540 5548 5557 5567 5577 5589 5601 5613 5625 5636 5647 5658 5668 5679 5688 5697 5706 5715 5723 5732 5740 5747 5753 5759 5764 5768 5771 5774 5776 5778
5507 5507 5509 5511 5514 5518 5524 5530 5537 5544 5552 5561 5571 5582 5593 5605 5616 5627 5638 5649 5660 5669 5679 5688 5697 5706 5715 5724 5732 5739 5746 5751 5756 5761 5764 5767 5769 5771
5510 5510 5511 5513 5515 5519 5523 5529 5535 5541 5549 5557 5566 5576 5586 5597 5608 5619 5630 5640 5651 5661 5670 5680 5689 5698 5707 5716 5724 5731 5737 5743 5748 5752 5756 5759 5762 5764
5513 5513 5513 5514 5517 5520 5524 5528 5534 5540 5547 5554 5562 5571 5580 5591 5601 5612 5623 5633 5643 5653 5662 5672 5682 5691 5700 5707 5714 5720 5727 5733 5739 5744 5748 5751 5755 5758
5515 5515 5515 5516 5518 5521 5524 5528 5533 5539 5545 5551 5558 5566 5575 5585 5595 5605 5615 5625 5635 5645 5655 5665 5674 5682 5689 5697 5704 5711 5718 5725 5730 5736 5740 5744 5747 5750
5516 5516 5517 5518 5519 5522 5525 5528 5533 5537 5543 5548 5555 5562 5571 5580 5589 5599 5609 5619 5628 5638 5647 5656 5664 5673 5681 5690 5697 5704 5710 5717 5722 5728 5733 5737 5740 5742
5517 5517 5518 5519 5520 5522 5525 5528 5532 5536 5540 5546 5552 5559 5566 5575 5584 5593 5602 5612 5621 5630 5639 5648 5657 5666 5674 5682 5689 5696 5702 5708 5714 5720 5725 5729 5732 5734